sat.trackr.live / text

‹ back to catalog

STARLINK-32654

NORAD 62322 · 2024-239X

PAYLOAD ACTIVE UNKNOWN

§ Identity

Operator
Country
US
Launch date
2024-12-13
Launch site
AFWTR
Launch vehicle
Mass (kg)
RCS (m²)

Purposes: comms

External: N2YO · Heavens-Above · Gunter

§ Orbital elements

Epoch: 2026-05-25T03:43:36.064992Z

Period
93.90 min
Inclination
53.1604°
Eccentricity
0.0001979
Mean motion
15.33569345 rev/d
Perigee alt
463.8 km
Apogee alt
466.5 km
Semi-major
6,843.3 km
B*
7.7240e-4
RAAN
198.5644°
Arg perigee
95.7397°
Mean anomaly
264.3831°
Rev number
8,109

§ Raw data

STARLINK-326541 62322U 24239X   26145.15527853  .00025131  00000+0  77240-3 0  99932 62322  53.1604 198.5644 0001979  95.7397 264.3831 15.33569345 81098

JSON: /api/v1/satellites/62322 · /tle

For live sub-satellite position, see the globe view (requires WebGL).

§ Visibility from observer

Set your observer location to see the next 7 days of passes ≥ 10°. The values pass through the URL so the page stays shareable.

No JS? Fill the form by hand. The geolocation button needs JavaScript.